Location: Newark
(41.8922°N, 9.0050°E)
Time: 05:57:03
(UTC+00:00)

ISS - Pass Details

Date: 27 January 2020
Orbit: 415 x 423 km, 51.6° (Epoch: 28 February)

Event Time Altitude Azimuth Distance (km) Brightness Sun altitude
Rises 18:10:12 0° 288° (WNW) 2,379 1.2 -18.3°
Reaches altitude 10° 18:12:52 10° 310° (NW) 1,513 -0.4 -18.8°
Maximum altitude 18:15:09 17° 352° (N) 1,170 -1.5 -19.2°
Enters shadow 18:15:27 17° 359° (N) 1,177 -1.6 -19.3°
